Showing default

YAOGAN-36 04C, 54750

Orbit data source: Space-Track

YAOGAN-36 04C, 54750 is a payload satellite owned by PLA GAD (CN) in LEO that was launched on Wed, 14 Dec 2022 UTC via a CHANG ZHENG 2D launch vehicle from the Xichang Space Center, China (XSC). Payload-class satellites include a variety of spacecraft equipped with specific instruments for various scientific and technological missions. These include communications satellites like Starlink; space stations such as the ISS; scientific satellites like the Hubble; Earth observation satellites from companies like Planet Labs, Umbra, and HawkEye 360; GPS; miniature CubeSats for education and research; and military/defense satellites.

Loading next visibility...
Identifier
54750, 2022-171E
Orbit
LEO
Country
Flag of CNCN / PRC
Related business
Manufacturer
DFH
Mission
Operational Defense Sigint
Bus & Motor
Unknown
Mass
~300 kg wet, ~300 kg dry
Launch date (UTC)
2022-12-14 (4 years ago)
Launch vehicle
CHANG ZHENG 2D
Launch site
Xichang Space Center, China (XSC)
Object type
Payload
Rocket body
Debris
Shape & HBR
Box + 2 Pan, 2.5 m
Radar Cross Section
11.063 m², Large (>1 m²)

Expand to show TLE details & history
Last TLE update: 1 day ago

TLE from 1 day ago
0 YAOGAN-36 04C
1 54750U 22171E   26172.38546215  .00007543  00000-0  23457-3 0  9999
2 54750  34.9802 156.6903 0005996 178.3725 181.7012 15.32564266196131
Epoch: 2026-06-21T09:15Z
TLE epoch observation values (Epoch: 2026-06-21T09:15:03.929Z)
Latitude
-0.00006°
Longitude
108.33736°
Altitude
471.168 km
Speed
7.631 km/s
True Right ascension
10h 26m 45s
True Declination
0° 00' 00"
Sunlit
Object was in daylight at epoch
Visualization orbit readout
Latitude
Unknown
Longitude
Unknown
Altitude
Unknown
Speed
Unknown
Apparent Right ascension
Unknown
Apparent Declination
Unknown
Sunlit
N/A
Visualization observer readout
Local Sidereal Time
21:51:53
Azimuth
Unknown
Elevation
Unknown
Doppler factor
Unknown
Orbital elements
Apogee altitude
475.539 km
Perigee altitude
467.325 km
Semi-major axis
6,849.569 km
Eccentricity
0.0006
Inclination
34.9802°
RAAN
156.6903°
Arg. of periapsis
178.3725°
True anomaly
181.69916°
Mean anomaly
181.7012°
Eccentric anomaly
181.70018°
Mean motion
3.82867 °/min
Orbital period
94.03 mins
BSTAR
0.00023457
Loading maneuver chart data...
Computing Atmospheric mass density...
Loading historical data...
Loading historical data...
Loading historical data...
Loading historical data...
Loading historical data...
Loading historical data...
Loading historical data...
Other satellites on launch #171 in the year 2022 (2022-12-14 UTC)

Documentation

Showing up to 5 results
|